| time (UTC) | temp C | wind direction | speed KPH | gust KPH | rain 1hr cm | rain 24hr cm | rain mn cm | humidity % | barometer mb |
| 20260507110115 | 11 | 142 | 0.0 | 1.6 | 0.00 | 0.00 | 0.00 | 80 | 1020.7 |
| 20260507105612 | 11 | 241 | 0.0 | 4.8 | 0.00 | 0.00 | 0.00 | 80 | 1020.8 |
| 20260507105108 | 11 | 182 | 1.6 | 3.2 | 0.00 | 0.00 | 0.00 | 80 | 1021.0 |
| 20260507104606 | 11 | 154 | 0.0 | 3.2 | 0.00 | 0.00 | 0.00 | 80 | 1020.8 |
| 20260507104102 | 11 | 206 | 1.6 | 3.2 | 0.00 | 0.00 | 0.00 | 80 | 1020.8 |
| 20260507103558 | 11 | 127 | 0.0 | 0.0 | 0.00 | 0.00 | 0.00 | 81 | 1020.9 |
| 20260507103055 | 11 | 11 | 0.0 | 1.6 | 0.00 | 0.00 | 0.00 | 80 | 1020.9 |
| 20260507102551 | 11 | 143 | 0.0 | 1.6 | 0.00 | 0.00 | 0.00 | 81 | 1020.8 |
| 20260507102047 | 11 | 141 | 1.6 | 3.2 | 0.00 | 0.00 | 0.00 | 80 | 1020.9 |
| 20260507101543 | 11 | 123 | 1.6 | 1.6 | 0.00 | 0.00 | 0.00 | 80 | 1020.9 |
| 20260507101039 | 11 | 156 | 0.0 | 3.2 | 0.00 | 0.00 | 0.00 | 80 | 1021.1 |
| 20260507100537 | 11 | 122 | 1.6 | 4.8 | 0.00 | 0.00 | 0.00 | 80 | 1020.9 |
| 20260507100035 | 11 | 232 | 1.6 | 4.8 | 0.00 | 0.00 | 0.00 | 80 | 1021.0 |
| 20260507095532 | 11 | 134 | 0.0 | 4.8 | 0.00 | 0.00 | 0.00 | 81 | 1021.1 |
| 20260507095029 | 11 | 161 | 0.0 | 3.2 | 0.00 | 0.00 | 0.00 | 81 | 1021.0 |
| 20260507094525 | 11 | 150 | 0.0 | 3.2 | 0.00 | 0.00 | 0.00 | 81 | 1021.1 |
| 20260507094022 | 11 | 136 | 0.0 | 1.6 | 0.00 | 0.00 | 0.00 | 82 | 1021.3 |
| 20260507093520 | 11 | 193 | 0.0 | 1.6 | 0.00 | 0.00 | 0.00 | 82 | 1021.2 |
| 20260507093018 | 11 | 160 | 0.0 | 1.6 | 0.00 | 0.00 | 0.00 | 82 | 1021.2 |
| 20260507092514 | 11 | 146 | 1.6 | 3.2 | 0.00 | 0.00 | 0.00 | 82 | 1021.3 |
| 20260507092011 | 11 | 318 | 0.0 | 3.2 | 0.00 | 0.00 | 0.00 | 82 | 1021.2 |
| 20260507091508 | 11 | 174 | 0.0 | 3.2 | 0.00 | 0.00 | 0.00 | 82 | 1021.3 |
| 20260507091004 | 11 | 206 | 1.6 | 3.2 | 0.00 | 0.00 | 0.00 | 82 | 1021.3 |
| 20260507090459 | 11 | 314 | 4.8 | 4.8 | 0.00 | 0.00 | 0.00 | 82 | 1021.4 |
| 20260507085956 | 11 | 149 | 0.0 | 3.2 | 0.00 | 0.00 | 0.00 | 83 | 1021.5 |
| 20260507085454 | 11 | 140 | 0.0 | 0.0 | 0.00 | 0.00 | 0.00 | 83 | 1021.6 |
| 20260507084950 | 11 | 100 | 0.0 | 3.2 | 0.00 | 0.00 | 0.00 | 83 | 1021.4 |
| 20260507084447 | 11 | 172 | 0.0 | 3.2 | 0.00 | 0.00 | 0.00 | 82 | 1021.4 |
| 20260507083944 | 11 | 134 | 0.0 | 1.6 | 0.00 | 0.00 | 0.00 | 82 | 1021.5 |
| 20260507083440 | 12 | 58 | 3.2 | 4.8 | 0.00 | 0.00 | 0.00 | 82 | 1021.3 |
| 20260507082937 | 12 | 169 | 0.0 | 1.6 | 0.00 | 0.00 | 0.00 | 82 | 1021.3 |
| 20260507082433 | 12 | 143 | 0.0 | 0.0 | 0.00 | 0.00 | 0.00 | 81 | 1021.5 |
| 20260507081930 | 12 | 285 | 3.2 | 3.2 | 0.00 | 0.00 | 0.00 | 81 | 1021.5 |
| 20260507081426 | 12 | 132 | 1.6 | 3.2 | 0.00 | 0.00 | 0.00 | 81 | 1021.4 |
| 20260507080923 | 12 | 294 | 1.6 | 3.2 | 0.00 | 0.00 | 0.00 | 81 | 1021.5 |
| 20260507080419 | 12 | 81 | 1.6 | 3.2 | 0.00 | 0.00 | 0.00 | 80 | 1021.5 |
| 20260507075914 | 12 | 208 | 1.6 | 4.8 | 0.00 | 0.00 | 0.00 | 81 | 1021.3 |
| 20260507075411 | 12 | 313 | 1.6 | 3.2 | 0.00 | 0.00 | 0.00 | 80 | 1021.1 |
| 20260507074908 | 12 | 261 | 3.2 | 4.8 | 0.00 | 0.00 | 0.00 | 80 | 1021.5 |
| 20260507074404 | 12 | 46 | 1.6 | 3.2 | 0.00 | 0.00 | 0.00 | 81 | 1021.4 |
| 20260507073902 | 12 | 71 | 3.2 | 3.2 | 0.00 | 0.00 | 0.00 | 81 | 1021.2 |
| 20260507073358 | 12 | 160 | 0.0 | 0.0 | 0.00 | 0.00 | 0.00 | 81 | 1021.3 |
| 20260507072855 | 12 | 353 | 1.6 | 8.0 | 0.00 | 0.00 | 0.00 | 81 | 1021.3 |
| 20260507072353 | 12 | 158 | 0.0 | 1.6 | 0.00 | 0.00 | 0.00 | 82 | 1021.1 |
| 20260507071850 | 12 | 207 | 0.0 | 4.8 | 0.00 | 0.00 | 0.00 | 82 | 1021.4 |
| 20260507071347 | 12 | 32 | 3.2 | 4.8 | 0.00 | 0.00 | 0.00 | 82 | 1021.1 |
| 20260507070843 | 12 | 127 | 0.0 | 1.6 | 0.00 | 0.00 | 0.00 | 82 | 1021.4 |
| 20260507070341 | 12 | 198 | 1.6 | 1.6 | 0.00 | 0.00 | 0.00 | 82 | 1021.2 |
| 20260507065838 | 12 | 34 | 1.6 | 3.2 | 0.00 | 0.00 | 0.00 | 82 | 1021.1 |
| 20260507065334 | 12 | 279 | 1.6 | 4.8 | 0.00 | 0.00 | 0.00 | 82 | 1021.1 |
| 20260507064831 | 12 | 259 | 4.8 | 8.0 | 0.00 | 0.00 | 0.00 | 82 | 1021.1 |
| 20260507064330 | 12 | 44 | 3.2 | 8.0 | 0.00 | 0.00 | 0.00 | 83 | 1021.3 |
| 20260507063827 | 12 | 191 | 0.0 | 3.2 | 0.00 | 0.00 | 0.00 | 83 | 1021.3 |
| 20260507063324 | 12 | 6 | 1.6 | 1.6 | 0.00 | 0.00 | 0.00 | 83 | 1021.2 |
| 20260507062821 | 12 | 16 | 0.0 | 3.2 | 0.00 | 0.00 | 0.00 | 84 | 1021.2 |
| 20260507062318 | 12 | 174 | 0.0 | 1.6 | 0.00 | 0.00 | 0.00 | 84 | 1021.4 |
| 20260507061816 | 12 | 125 | 1.6 | 3.2 | 0.00 | 0.00 | 0.00 | 84 | 1021.3 |
| 20260507061314 | 12 | 222 | 1.6 | 4.8 | 0.00 | 0.00 | 0.00 | 84 | 1021.5 |
| 20260507060812 | 12 | 177 | 0.0 | 3.2 | 0.00 | 0.00 | 0.00 | 84 | 1021.3 |
| 20260507060308 | 12 | 166 | 0.0 | 1.6 | 0.00 | 0.00 | 0.00 | 84 | 1021.4 |
| 20260507055805 | 12 | 101 | 1.6 | 3.2 | 0.00 | 0.00 | 0.00 | 84 | 1021.2 |
| 20260507055300 | 12 | 178 | 1.6 | 4.8 | 0.00 | 0.00 | 0.00 | 84 | 1021.2 |
| 20260507054756 | 12 | 126 | 0.0 | 1.6 | 0.00 | 0.00 | 0.00 | 84 | 1021.2 |
| 20260507054253 | 12 | 136 | 0.0 | 0.0 | 0.00 | 0.00 | 0.00 | 84 | 1021.3 |
| 20260507053750 | 12 | 157 | 0.0 | 3.2 | 0.00 | 0.00 | 0.00 | 84 | 1021.5 |
| 20260507053248 | 12 | 91 | 4.8 | 4.8 | 0.00 | 0.00 | 0.00 | 84 | 1021.2 |
| 20260507052747 | 12 | 42 | 1.6 | 3.2 | 0.00 | 0.00 | 0.00 | 84 | 1021.2 |
| 20260507052243 | 12 | 155 | 1.6 | 3.2 | 0.00 | 0.00 | 0.00 | 84 | 1021.3 |
| 20260507051741 | 12 | 172 | 0.0 | 1.6 | 0.00 | 0.00 | 0.00 | 84 | 1021.4 |
| 20260507051237 | 12 | 169 | 0.0 | 1.6 | 0.00 | 0.00 | 0.00 | 84 | 1021.3 |
| 20260507050734 | 12 | 182 | 0.0 | 1.6 | 0.00 | 0.00 | 0.00 | 83 | 1021.1 |
| 20260507050231 | 12 | 185 | 1.6 | 3.2 | 0.00 | 0.00 | 0.00 | 83 | 1021.4 |
| 20260507045728 | 12 | 167 | 0.0 | 3.2 | 0.00 | 0.00 | 0.00 | 83 | 1021.3 |
| 20260507045224 | 12 | 141 | 1.6 | 8.0 | 0.00 | 0.00 | 0.00 | 82 | 1021.3 |
| 20260507044722 | 12 | 178 | 1.6 | 3.2 | 0.00 | 0.00 | 0.00 | 82 | 1021.1 |
| 20260507044218 | 12 | 302 | 0.0 | 3.2 | 0.00 | 0.00 | 0.00 | 82 | 1021.2 |
| 20260507043714 | 13 | 197 | 0.0 | 3.2 | 0.00 | 0.00 | 0.00 | 81 | 1021.2 |
| 20260507043211 | 13 | 3 | 1.6 | 4.8 | 0.00 | 0.00 | 0.00 | 81 | 1021.3 |
| 20260507042708 | 13 | 106 | 1.6 | 4.8 | 0.00 | 0.00 | 0.00 | 81 | 1021.0 |
| 20260507042202 | 13 | 162 | 1.6 | 3.2 | 0.00 | 0.00 | 0.00 | 80 | 1021.1 |
| 20260507041700 | 13 | 271 | 3.2 | 4.8 | 0.00 | 0.00 | 0.00 | 81 | 1021.1 |
| 20260507041156 | 13 | 171 | 1.6 | 9.7 | 0.00 | 0.00 | 0.00 | 80 | 1020.9 |
| 20260507040653 | 13 | 151 | 1.6 | 3.2 | 0.00 | 0.00 | 0.00 | 80 | 1020.9 |
| 20260507040150 | 13 | 344 | 6.4 | 8.0 | 0.00 | 0.00 | 0.00 | 80 | 1021.1 |
| 20260507035646 | 13 | 307 | 3.2 | 8.0 | 0.00 | 0.00 | 0.00 | 80 | 1020.9 |
| 20260507035142 | 13 | 305 | 3.2 | 9.7 | 0.00 | 0.00 | 0.00 | 79 | 1020.9 |
| 20260507034639 | 13 | 238 | 3.2 | 8.0 | 0.00 | 0.00 | 0.00 | 79 | 1020.7 |
| 20260507034136 | 13 | 65 | 1.6 | 4.8 | 0.00 | 0.00 | 0.00 | 79 | 1020.7 |
| 20260507033635 | 13 | 312 | 3.2 | 3.2 | 0.00 | 0.00 | 0.00 | 79 | 1020.7 |
| 20260507033131 | 14 | 256 | 3.2 | 8.0 | 0.00 | 0.00 | 0.00 | 79 | 1020.4 |
| 20260507032629 | 14 | 109 | 0.0 | 4.8 | 0.00 | 0.00 | 0.00 | 78 | 1020.4 |
| 20260507032125 | 14 | 17 | 1.6 | 3.2 | 0.00 | 0.00 | 0.00 | 78 | 1020.4 |
| 20260507031622 | 14 | 145 | 1.6 | 8.0 | 0.00 | 0.00 | 0.00 | 78 | 1020.3 |
| 20260507031118 | 15 | 289 | 1.6 | 3.2 | 0.00 | 0.00 | 0.00 | 78 | 1020.3 |
| 20260507030615 | 15 | 147 | 3.2 | 4.8 | 0.00 | 0.00 | 0.00 | 78 | 1020.2 |
| 20260507030113 | 15 | 207 | 3.2 | 4.8 | 0.00 | 0.00 | 0.00 | 78 | 1020.3 |
| 20260507025610 | 15 | 250 | 1.6 | 4.8 | 0.00 | 0.00 | 0.00 | 78 | 1020.2 |
| 20260507025107 | 15 | 151 | 0.0 | 8.0 | 0.00 | 0.00 | 0.00 | 78 | 1019.9 |
| 20260507024605 | 15 | 86 | 1.6 | 4.8 | 0.00 | 0.00 | 0.00 | 77 | 1020.0 |
| 20260507024102 | 15 | 182 | 4.8 | 8.0 | 0.00 | 0.00 | 0.00 | 77 | 1019.9 |
| 20260507023557 | 15 | 162 | 1.6 | 3.2 | 0.00 | 0.00 | 0.00 | 77 | 1020.0 |
| 20260507023055 | 15 | 145 | 0.0 | 4.8 | 0.00 | 0.00 | 0.00 | 76 | 1019.9 |
| 20260507022551 | 15 | 148 | 0.0 | 0.0 | 0.00 | 0.00 | 0.00 | 77 | 1019.9 |
| 20260507022046 | 16 | 136 | 0.0 | 1.6 | 0.00 | 0.00 | 0.00 | 76 | 1020.0 |
| 20260507021543 | 16 | 176 | 0.0 | 3.2 | 0.00 | 0.00 | 0.00 | 75 | 1019.9 |
| 20260507021039 | 16 | 300 | 3.2 | 3.2 | 0.00 | 0.00 | 0.00 | 75 | 1020.2 |
| 20260507020538 | 16 | 133 | 3.2 | 8.0 | 0.00 | 0.00 | 0.00 | 73 | 1020.1 |
| 20260507020034 | 16 | 144 | 1.6 | 3.2 | 0.00 | 0.00 | 0.00 | 74 | 1020.0 |
| 20260507015532 | 16 | 147 | 1.6 | 4.8 | 0.00 | 0.00 | 0.00 | 74 | 1020.0 |
| 20260507015029 | 16 | 218 | 1.6 | 4.8 | 0.00 | 0.00 | 0.00 | 73 | 1020.3 |
| 20260507014526 | 17 | 146 | 1.6 | 8.0 | 0.00 | 0.00 | 0.00 | 73 | 1020.0 |
| 20260507014021 | 17 | 162 | 0.0 | 4.8 | 0.00 | 0.00 | 0.00 | 73 | 1020.0 |
| 20260507013518 | 17 | 231 | 1.6 | 4.8 | 0.00 | 0.00 | 0.00 | 74 | 1020.2 |
| 20260507013016 | 17 | 341 | 3.2 | 8.0 | 0.00 | 0.00 | 0.00 | 73 | 1020.0 |
| 20260507012513 | 17 | 143 | 1.6 | 8.0 | 0.00 | 0.00 | 0.00 | 74 | 1020.2 |
| 20260507012009 | 17 | 171 | 4.8 | 8.0 | 0.00 | 0.00 | 0.00 | 73 | 1020.3 |
| 20260507011506 | 17 | 70 | 8.0 | 9.7 | 0.00 | 0.00 | 0.00 | 72 | 1020.3 |
| 20260507011002 | 17 | 196 | 0.0 | 4.8 | 0.00 | 0.00 | 0.00 | 72 | 1020.0 |
| 20260507010456 | 17 | 212 | 1.6 | 3.2 | 0.00 | 0.00 | 0.00 | 72 | 1020.1 |
| 20260507005954 | 17 | 103 | 0.0 | 4.8 | 0.00 | 0.00 | 0.00 | 72 | 1020.0 |
| 20260507005451 | 18 | 184 | 1.6 | 4.8 | 0.00 | 0.00 | 0.00 | 71 | 1020.0 |
| 20260507004947 | 18 | 175 | 0.0 | 1.6 | 0.00 | 0.00 | 0.00 | 71 | 1020.2 |
| 20260507004444 | 18 | 178 | 1.6 | 8.0 | 0.00 | 0.00 | 0.00 | 71 | 1020.2 |
| 20260507003942 | 18 | 306 | 6.4 | 9.7 | 0.00 | 0.00 | 0.00 | 70 | 1020.1 |
| 20260507003437 | 18 | 141 | 1.6 | 8.0 | 0.00 | 0.00 | 0.00 | 70 | 1020.0 |
| 20260507002932 | 18 | 177 | 0.0 | 3.2 | 0.00 | 0.00 | 0.00 | 70 | 1020.0 |
| 20260507002428 | 19 | 139 | 1.6 | 9.7 | 0.00 | 0.00 | 0.00 | 69 | 1019.9 |
| 20260507001926 | 19 | 97 | 1.6 | 1.6 | 0.00 | 0.00 | 0.00 | 69 | 1020.0 |
| 20260507001422 | 19 | 189 | 1.6 | 4.8 | 0.00 | 0.00 | 0.00 | 69 | 1020.0 |
| 20260507000920 | 19 | 181 | 0.0 | 4.8 | 0.00 | 0.00 | 0.00 | 69 | 1019.9 |
| 20260507000415 | 19 | 121 | 1.6 | 4.8 | 0.00 | 0.00 | 0.00 | 70 | 1019.9 |
| 20260506235911 | 20 | 191 | 1.6 | 3.2 | 0.00 | 0.00 | 0.00 | 70 | 1020.0 |
| 20260506235409 | 19 | 23 | 1.6 | 8.0 | 0.00 | 0.00 | 0.00 | 71 | 1020.0 |
| 20260506234904 | 19 | 177 | 1.6 | 1.6 | 0.00 | 0.00 | 0.00 | 71 | 1019.9 |
| 20260506234402 | 20 | 246 | 1.6 | 8.0 | 0.00 | 0.00 | 0.00 | 71 | 1020.1 |
| 20260506233859 | 19 | 187 | 0.0 | 4.8 | 0.00 | 0.00 | 0.00 | 72 | 1019.9 |
| 20260506233355 | 19 | 110 | 0.0 | 1.6 | 0.00 | 0.00 | 0.00 | 73 | 1019.8 |
| 20260506232852 | 20 | 287 | 1.6 | 3.2 | 0.00 | 0.00 | 0.00 | 72 | 1019.6 |
| 20260506232348 | 20 | 148 | 0.0 | 1.6 | 0.00 | 0.00 | 0.00 | 72 | 1019.8 |
| 20260506231844 | 20 | 143 | 0.0 | 3.2 | 0.00 | 0.00 | 0.00 | 72 | 1020.0 |
| 20260506231342 | 20 | 157 | 1.6 | 4.8 | 0.00 | 0.00 | 0.00 | 71 | 1019.9 |
| 20260506230839 | 20 | 197 | 1.6 | 3.2 | 0.00 | 0.00 | 0.00 | 69 | 1019.9 |
| 20260506230336 | 20 | 129 | 0.0 | 1.6 | 0.00 | 0.00 | 0.00 | 70 | 1019.9 |
| 20260506225832 | 19 | 154 | 0.0 | 1.6 | 0.00 | 0.00 | 0.00 | 71 | 1020.0 |
| 20260506225330 | 20 | 97 | 3.2 | 4.8 | 0.00 | 0.00 | 0.00 | 69 | 1020.0 |
| 20260506224827 | 20 | 145 | 0.0 | 1.6 | 0.00 | 0.00 | 0.00 | 68 | 1020.1 |
| 20260506224324 | 20 | 318 | 3.2 | 3.2 | 0.00 | 0.00 | 0.00 | 69 | 1020.2 |
| 20260506223820 | 20 | 163 | 1.6 | 1.6 | 0.00 | 0.00 | 0.00 | 70 | 1020.2 |
| 20260506223315 | 20 | 167 | 1.6 | 1.6 | 0.00 | 0.00 | 0.00 | 70 | 1020.3 |
| 20260506222812 | 20 | 149 | 3.2 | 4.8 | 0.00 | 0.00 | 0.00 | 69 | 1020.4 |
| 20260506222308 | 20 | 152 | 0.0 | 0.0 | 0.00 | 0.00 | 0.00 | 70 | 1020.4 |
| 20260506221801 | 18 | 255 | 3.2 | 4.8 | 0.00 | 0.00 | 0.00 | 70 | 1020.3 |
| 20260506221258 | 18 | 287 | 4.8 | 8.0 | 0.00 | 0.00 | 0.00 | 70 | 1020.3 |
| 20260506220755 | 19 | 192 | 3.2 | 8.0 | 0.00 | 0.00 | 0.00 | 69 | 1020.4 |
| 20260506220250 | 19 | 298 | 8.0 | 9.7 | 0.00 | 0.00 | 0.00 | 68 | 1020.4 |
| 20260506215747 | 19 | 260 | 1.6 | 9.7 | 0.00 | 0.00 | 0.00 | 70 | 1020.5 |
| 20260506215242 | 19 | 274 | 4.8 | 4.8 | 0.00 | 0.00 | 0.00 | 69 | 1020.5 |
| 20260506214739 | 18 | 227 | 4.8 | 8.0 | 0.00 | 0.00 | 0.00 | 71 | 1020.6 |
| 20260506214236 | 18 | 169 | 3.2 | 4.8 | 0.00 | 0.00 | 0.00 | 70 | 1020.4 |
| 20260506213735 | 18 | 305 | 6.4 | 9.7 | 0.00 | 0.00 | 0.00 | 71 | 1020.5 |
| 20260506213232 | 18 | 180 | 4.8 | 8.0 | 0.00 | 0.00 | 0.00 | 72 | 1020.3 |
| 20260506212729 | 18 | 248 | 4.8 | 8.0 | 0.00 | 0.00 | 0.00 | 71 | 1020.5 |
| 20260506212224 | 18 | 259 | 3.2 | 3.2 | 0.00 | 0.00 | 0.00 | 71 | 1020.4 |
| 20260506211720 | 18 | 311 | 3.2 | 4.8 | 0.00 | 0.00 | 0.00 | 71 | 1020.6 |
| 20260506211216 | 18 | 285 | 3.2 | 3.2 | 0.00 | 0.00 | 0.00 | 72 | 1020.6 |
| 20260506210713 | 18 | 276 | 4.8 | 4.8 | 0.00 | 0.00 | 0.00 | 73 | 1021.0 |
| 20260506210210 | 18 | 303 | 6.4 | 9.7 | 0.00 | 0.00 | 0.00 | 72 | 1020.8 |
| 20260506205707 | 17 | 295 | 3.2 | 3.2 | 0.00 | 0.00 | 0.00 | 73 | 1020.8 |
| 20260506205202 | 18 | 266 | 1.6 | 9.7 | 0.00 | 0.00 | 0.00 | 74 | 1021.0 |
| 20260506204700 | 18 | 152 | 1.6 | 4.8 | 0.00 | 0.00 | 0.00 | 72 | 1020.9 |
| 20260506204156 | 17 | 160 | 0.0 | 4.8 | 0.00 | 0.00 | 0.00 | 74 | 1020.9 |
| 20260506203655 | 17 | 245 | 3.2 | 4.8 | 0.00 | 0.00 | 0.00 | 74 | 1020.9 |
| 20260506203152 | 18 | 217 | 3.2 | 9.7 | 0.00 | 0.00 | 0.00 | 74 | 1021.0 |
| 20260506202650 | 17 | 159 | 3.2 | 8.0 | 0.00 | 0.00 | 0.00 | 74 | 1020.9 |
| 20260506202145 | 18 | 237 | 0.0 | 3.2 | 0.00 | 0.00 | 0.00 | 73 | 1020.7 |
| 20260506201642 | 17 | 183 | 1.6 | 4.8 | 0.00 | 0.00 | 0.00 | 77 | 1020.9 |
| 20260506201139 | 17 | 135 | 1.6 | 3.2 | 0.00 | 0.00 | 0.00 | 76 | 1020.9 |
| 20260506200636 | 17 | 173 | 1.6 | 3.2 | 0.00 | 0.00 | 0.00 | 77 | 1020.7 |
| 20260506200133 | 17 | 174 | 4.8 | 4.8 | 0.00 | 0.00 | 0.00 | 79 | 1020.7 |
| 20260506195629 | 16 | 105 | 1.6 | 1.6 | 0.00 | 0.00 | 0.00 | 80 | 1020.9 |
| 20260506195125 | 16 | 177 | 1.6 | 3.2 | 0.00 | 0.00 | 0.00 | 80 | 1021.1 |
| 20260506194623 | 17 | 177 | 0.0 | 1.6 | 0.00 | 0.00 | 0.00 | 78 | 1020.9 |
| 20260506194119 | 16 | 105 | 0.0 | 1.6 | 0.00 | 0.00 | 0.00 | 81 | 1021.0 |
| 20260506193617 | 16 | 108 | 0.0 | 1.6 | 0.00 | 0.00 | 0.00 | 81 | 1021.2 |
| 20260506193114 | 16 | 293 | 4.8 | 8.0 | 0.00 | 0.00 | 0.00 | 82 | 1021.3 |
| 20260506192611 | 16 | 301 | 3.2 | 4.8 | 0.00 | 0.00 | 0.00 | 81 | 1021.2 |
| 20260506192107 | 16 | 190 | 0.0 | 1.6 | 0.00 | 0.00 | 0.00 | 81 | 1021.2 |
| 20260506191603 | 16 | 181 | 0.0 | 4.8 | 0.00 | 0.00 | 0.00 | 82 | 1021.3 |
| 20260506191059 | 16 | 167 | 0.0 | 3.2 | 0.00 | 0.00 | 0.00 | 81 | 1021.0 |
| 20260506190557 | 16 | 191 | 1.6 | 4.8 | 0.00 | 0.00 | 0.00 | 81 | 1021.0 |
| 20260506190054 | 16 | 171 | 1.6 | 3.2 | 0.00 | 0.00 | 0.00 | 80 | 1021.2 |
| 20260506185551 | 16 | 198 | 0.0 | 0.0 | 0.00 | 0.00 | 0.00 | 80 | 1021.1 |
| 20260506185047 | 15 | 285 | 4.8 | 4.8 | 0.00 | 0.00 | 0.00 | 82 | 1021.0 |
| 20260506184545 | 15 | 212 | 1.6 | 1.6 | 0.00 | 0.00 | 0.00 | 82 | 1020.9 |
| 20260506184042 | 15 | 201 | 1.6 | 3.2 | 0.00 | 0.00 | 0.00 | 82 | 1021.1 |
| 20260506183538 | 15 | 295 | 3.2 | 4.8 | 0.00 | 0.00 | 0.00 | 82 | 1020.9 |
| 20260506183034 | 15 | 243 | 3.2 | 4.8 | 0.00 | 0.00 | 0.00 | 83 | 1021.0 |
| 20260506182532 | 15 | 268 | 4.8 | 4.8 | 0.00 | 0.00 | 0.00 | 82 | 1020.9 |
| 20260506182029 | 15 | 272 | 3.2 | 4.8 | 0.00 | 0.00 | 0.00 | 83 | 1020.9 |
| 20260506181527 | 15 | 197 | 1.6 | 3.2 | 0.00 | 0.00 | 0.00 | 83 | 1021.0 |
| 20260506181023 | 15 | 183 | 0.0 | 3.2 | 0.00 | 0.00 | 0.00 | 84 | 1021.1 |
| 20260506180520 | 15 | 290 | 4.8 | 4.8 | 0.00 | 0.00 | 0.00 | 84 | 1021.3 |
| 20260506180017 | 15 | 192 | 1.6 | 3.2 | 0.00 | 0.00 | 0.00 | 84 | 1021.2 |
| 20260506175513 | 15 | 286 | 3.2 | 3.2 | 0.00 | 0.00 | 0.00 | 83 | 1021.0 |
| 20260506175010 | 15 | 298 | 4.8 | 4.8 | 0.00 | 0.00 | 0.00 | 83 | 1020.9 |
| 20260506174508 | 15 | 213 | 1.6 | 3.2 | 0.00 | 0.00 | 0.00 | 84 | 1020.9 |
| 20260506174004 | 14 | 298 | 1.6 | 4.8 | 0.00 | 0.00 | 0.00 | 84 | 1020.8 |
| 20260506173502 | 15 | 152 | 0.0 | 3.2 | 0.00 | 0.00 | 0.00 | 83 | 1020.9 |
| 20260506172959 | 15 | 192 | 1.6 | 3.2 | 0.00 | 0.00 | 0.00 | 83 | 1020.6 |
| 20260506172456 | 15 | 130 | 0.0 | 1.6 | 0.00 | 0.00 | 0.00 | 82 | 1020.8 |
| 20260506171952 | 15 | 148 | 0.0 | 1.6 | 0.00 | 0.00 | 0.00 | 82 | 1020.7 |
| 20260506171449 | 15 | 170 | 1.6 | 1.6 | 0.00 | 0.00 | 0.00 | 83 | 1020.7 |
| 20260506170947 | 14 | 140 | 0.0 | 3.2 | 0.00 | 0.00 | 0.00 | 83 | 1020.5 |
| 20260506170443 | 14 | 107 | 1.6 | 3.2 | 0.00 | 0.00 | 0.00 | 85 | 1020.8 |
| 20260506165936 | 14 | 92 | 3.2 | 3.2 | 0.00 | 0.00 | 0.00 | 83 | 1020.7 |
| 20260506165434 | 14 | 138 | 0.0 | 0.0 | 0.00 | 0.00 | 0.00 | 84 | 1020.6 |
| 20260506164930 | 14 | 109 | 1.6 | 3.2 | 0.00 | 0.00 | 0.00 | 84 | 1020.9 |
| 20260506164427 | 14 | 161 | 0.0 | 1.6 | 0.00 | 0.00 | 0.00 | 84 | 1020.8 |
| 20260506163919 | 14 | 319 | 3.2 | 4.8 | 0.00 | 0.00 | 0.00 | 85 | 1020.8 |
| 20260506163414 | 14 | 248 | 1.6 | 3.2 | 0.00 | 0.00 | 0.00 | 85 | 1020.7 |
| 20260506162909 | 14 | 157 | 0.0 | 1.6 | 0.00 | 0.00 | 0.00 | 85 | 1020.8 |
| 20260506162407 | 13 | 206 | 1.6 | 1.6 | 0.00 | 0.00 | 0.00 | 86 | 1020.8 |
| 20260506161904 | 13 | 294 | 1.6 | 3.2 | 0.00 | 0.00 | 0.00 | 85 | 1020.8 |
| 20260506161401 | 13 | 169 | 0.0 | 1.6 | 0.00 | 0.00 | 0.00 | 85 | 1020.7 |
| 20260506160853 | 14 | 123 | 0.0 | 1.6 | 0.00 | 0.00 | 0.00 | 83 | 1020.6 |
| 20260506160350 | 14 | 145 | 0.0 | 0.0 | 0.00 | 0.00 | 0.00 | 84 | 1020.5 |
| 20260506155848 | 13 | 107 | 0.0 | 1.6 | 0.00 | 0.00 | 0.00 | 85 | 1020.4 |
| 20260506155345 | 13 | 200 | 0.0 | 1.6 | 0.00 | 0.00 | 0.00 | 85 | 1020.3 |
| 20260506153502 | 13 | 118 | 1.6 | 4.8 | 0.00 | 0.00 | 0.00 | 86 | 1020.2 |
| 20260506153000 | 13 | 134 | 0.0 | 3.2 | 0.00 | 0.00 | 0.00 | 86 | 1020.2 |
| 20260506152456 | 13 | 123 | 1.6 | 3.2 | 0.00 | 0.00 | 0.00 | 87 | 1020.4 |
| 20260506151955 | 13 | 153 | 0.0 | 1.6 | 0.00 | 0.00 | 0.00 | 88 | 1020.5 |
| 20260506151452 | 13 | 189 | 0.0 | 3.2 | 0.00 | 0.00 | 0.00 | 88 | 1020.6 |
| 20260506150949 | 13 | 154 | 0.0 | 1.6 | 0.00 | 0.00 | 0.00 | 89 | 1020.7 |
| 20260506150445 | 13 | 356 | 1.6 | 3.2 | 0.00 | 0.00 | 0.00 | 89 | 1020.5 |
| 20260506145942 | 12 | 215 | 1.6 | 3.2 | 0.00 | 0.00 | 0.00 | 89 | 1020.7 |
| 20260506145438 | 12 | 167 | 0.0 | 1.6 | 0.00 | 0.00 | 0.00 | 89 | 1020.6 |
| 20260506144936 | 12 | 150 | 0.0 | 1.6 | 0.00 | 0.00 | 0.00 | 89 | 1020.6 |
| 20260506144432 | 12 | 199 | 0.0 | 3.2 | 0.00 | 0.00 | 0.00 | 89 | 1020.7 |
| 20260506143931 | 12 | 176 | 0.0 | 3.2 | 0.00 | 0.00 | 0.00 | 90 | 1020.3 |
| 20260506143428 | 12 | 113 | 0.0 | 1.6 | 0.00 | 0.00 | 0.00 | 90 | 1020.3 |
| 20260506142926 | 12 | 160 | 0.0 | 3.2 | 0.00 | 0.00 | 0.00 | 90 | 1020.3 |
| 20260506142424 | 12 | 263 | 1.6 | 3.2 | 0.00 | 0.00 | 0.00 | 90 | 1020.1 |
| 20260506141921 | 12 | 271 | 1.6 | 1.6 | 0.00 | 0.00 | 0.00 | 90 | 1020.1 |
| 20260506141419 | 12 | 300 | 1.6 | 3.2 | 0.00 | 0.00 | 0.00 | 90 | 1019.9 |
| 20260506140918 | 12 | 148 | 1.6 | 1.6 | 0.00 | 0.00 | 0.00 | 90 | 1019.8 |
| 20260506140414 | 12 | 158 | 0.0 | 1.6 | 0.00 | 0.00 | 0.00 | 90 | 1019.8 |
| 20260506135911 | 12 | 318 | 3.2 | 3.2 | 0.00 | 0.00 | 0.00 | 90 | 1019.6 |
| 20260506135408 | 12 | 169 | 0.0 | 1.6 | 0.00 | 0.00 | 0.00 | 90 | 1020.0 |
| 20260506134904 | 12 | 117 | 0.0 | 1.6 | 0.00 | 0.00 | 0.00 | 90 | 1019.8 |
| 20260506134400 | 12 | 198 | 0.0 | 0.0 | 0.00 | 0.00 | 0.00 | 90 | 1019.8 |
| 20260506133857 | 12 | 153 | 0.0 | 1.6 | 0.00 | 0.00 | 0.00 | 91 | 1019.8 |
| 20260506133354 | 12 | 119 | 0.0 | 3.2 | 0.00 | 0.00 | 0.00 | 91 | 1019.7 |
| 20260506132850 | 12 | 138 | 0.0 | 1.6 | 0.00 | 0.00 | 0.00 | 91 | 1019.7 |
| 20260506132348 | 12 | 277 | 3.2 | 3.2 | 0.00 | 0.00 | 0.00 | 91 | 1019.6 |
| 20260506131846 | 12 | 179 | 0.0 | 1.6 | 0.00 | 0.00 | 0.00 | 91 | 1019.6 |
| 20260506131342 | 12 | 137 | 0.0 | 0.0 | 0.00 | 0.00 | 0.00 | 91 | 1019.7 |
| 20260506130839 | 12 | 154 | 0.0 | 0.0 | 0.00 | 0.00 | 0.00 | 91 | 1019.4 |
| 20260506130335 | 12 | 160 | 0.0 | 0.0 | 0.00 | 0.00 | 0.00 | 91 | 1019.5 |
| 20260506125834 | 12 | 156 | 0.0 | 0.0 | 0.00 | 0.00 | 0.00 | 91 | 1019.4 |
| 20260506125332 | 12 | 142 | 0.0 | 0.0 | 0.00 | 0.00 | 0.00 | 91 | 1019.4 |
| 20260506124830 | 12 | 198 | 0.0 | 0.0 | 0.00 | 0.00 | 0.00 | 91 | 1019.3 |
| 20260506124326 | 12 | 252 | 0.0 | 0.0 | 0.00 | 0.00 | 0.00 | 91 | 1019.1 |
| 20260506123824 | 12 | 156 | 0.0 | 0.0 | 0.00 | 0.00 | 0.00 | 91 | 1019.3 |
| 20260506123322 | 12 | 150 | 0.0 | 0.0 | 0.00 | 0.00 | 0.00 | 91 | 1019.3 |
| 20260506122819 | 12 | 144 | 0.0 | 0.0 | 0.00 | 0.00 | 0.00 | 91 | 1019.1 |
| 20260506122316 | 12 | 143 | 0.0 | 0.0 | 0.00 | 0.00 | 0.00 | 91 | 1019.3 |
| 20260506121814 | 12 | 192 | 0.0 | 0.0 | 0.00 | 0.00 | 0.00 | 90 | 1019.2 |
| 20260506121311 | 12 | 156 | 0.0 | 0.0 | 0.00 | 0.00 | 0.00 | 90 | 1019.1 |
| 20260506120808 | 12 | 136 | 0.0 | 0.0 | 0.00 | 0.00 | 0.00 | 90 | 1019.1 |
| 20260506120306 | 12 | 149 | 0.0 | 0.0 | 0.00 | 0.00 | 0.00 | 90 | 1019.4 |
| 20260506115803 | 12 | 149 | 0.0 | 0.0 | 0.00 | 0.00 | 0.00 | 90 | 1019.1 |
| 20260506115306 | 13 | 134 | 0.0 | 1.6 | 0.00 | 0.00 | 0.00 | 90 | 1019.0 |
| 20260506114759 | 13 | 178 | 0.0 | 9.7 | 0.00 | 0.00 | 0.00 | 90 | 1019.1 |
| 20260506114256 | 13 | 146 | 0.0 | 1.6 | 0.00 | 0.00 | 0.00 | 90 | 1018.9 |
| 20260506113755 | 13 | 154 | 0.0 | 1.6 | 0.00 | 0.00 | 0.00 | 90 | 1018.9 |
| 20260506113252 | 13 | 290 | 0.0 | 1.6 | 0.00 | 0.00 | 0.00 | 90 | 1018.8 |
| 20260506112748 | 13 | 146 | 0.0 | 1.6 | 0.00 | 0.00 | 0.00 | 90 | 1018.8 |
| 20260506112246 | 13 | 181 | 0.0 | 1.6 | 0.00 | 0.00 | 0.00 | 90 | 1018.8 |
| 20260506111743 | 13 | 154 | 0.0 | 1.6 | 0.00 | 0.00 | 0.00 | 89 | 1018.8 |
| 20260506111241 | 13 | 182 | 0.0 | 1.6 | 0.00 | 0.00 | 0.00 | 89 | 1018.6 |
| 20260506110738 | 13 | 126 | 0.0 | 1.6 | 0.00 | 0.00 | 0.00 | 89 | 1018.8 |